SCP
0 0 0 0 0 0 0 0 0 0 0 -0 0 0 0 0 0 0 0 0 0 0 0 0 0 0 0 0 0 0 0 0
0 0 0 0 0 -0 -0 0 0 -0 -0 0 0 0 0 0 0 0 0 0 0 0 0 0 0 0 0 0 0 0 0 0
0 0 0 0 0 -0 0 0 0 -0 0 0 0 0 0 0 0 0 0 0 0 0 -0 -0 -0 0 0 0 0 0 0 0
0 0 0 -0 -0 -0 0 0 -0 -0 0 0 0 0 0 0 0 0 0 0 0 0 -0 -0 -0 -0 0 -0 0 0 0 0
0 0 0 0 -0 -0 -0 -0 -0 -0 -0 0 0 0 0 -0 0 0 0 0 0 0 0 -0 -0 -0 -0 -0 -0 0 0 0
0 0 0 0 0 -0 -0 -0 -0 -0 -0 0 0 -0 -0 -0 -0 -0 0 0 0 0 0 0 -0 -0 -0 -0 0 0 0 0
0 0 0 0 0 -0 -0 -0 -0 -0 -0 -0 -0 -0 -0 -0 -0 -0 0 0 0 0 0 0 -0 -0 0 -0 -0 0 0 0
0 0 0 0 -0 0 -0 -0 0 0 0 -0 -0 -0 -0 -0 -0 -0 -0 0 0 0 0 0 0 -0 0 -0 -0 0 0 0
0 0 0 -0 0 0 0 0 0 0 0 -0 -0 -0 -0 -0 -0 0 -0 0 0 0 0 0 0 0 -0 0 -0 0 0 0
0 0 0 -0 0 0 -0 -0 -0 -0 -0 -0 -0 -0 -0 -0 -0 0 0 0 0 0 0 0 0 0 -0 0 -0 0 0 0
0 0 0 0 0 0 -0 -0 -0 0 -0 -0 -0 -0 0 0 -0 -0 0 0 0 0 0 0 0 0 0 -0 0 0 -0 0
0 0 0 0 0 0 0 0 -0 -0 -0 0 0 0 0 0 0 -0 -0 0 0 0 0 0 0 0 0 0 0 0 0 0
0 0 0 0 0 0 0 0 -0 0 -0 0 0 0 0 0 0 0 0 0 0 0 0 0 0 0 0 0 0 0 0 0
0 0 0 0 0 0 0 0 0 0 0 0 0 0 0 0 0 0 0 0 -0 -0 -0 0 0 0 -0 -0 0 -0 -0 0
0 0 0 0 0 0 0 0 0 0 0 0 0 0 0 0 0 0 0 0 0 0 0 0 0 0 -0 0 -0 -0 0 0
0 0 0 0 0 0 0 0 0 0 0 0 0 0 0 0 0 0 0 0 0 0 0 0 0 0 0 0 0 0 0 0
0 0 0 0 0 0 0 0 0 0 0 0 0 0 0 0 0 0 0 0 0 0 0 0 0 0 0 0 0 0 0 0
0 0 0 0 0 0 0 -0 0 0 0 0 0 0 0 0 0 0 0 0 0 0 0 0 0 0 0 0 0 0 0 0
0 0 0 0 0 0 0 0 -0 0 0 0 0 0 0 0 0 0 0 0 0 0 0 0 0 0 -0 -0 -0 0 -0 -0
0 0 0 0 0 0 0 0 0 0 0 0 0 0 0 0 0 0 0 0 0 0 -0 0 -0 0 0 -0 -0 -0 -0 -0
Wind_Speed_500mb
41 52 52 52 51 51 54 52 49 43 36 32 28 26 20 19 19 17 24 22 21 15 8 5 9 12 11 8 13 22 27 32
37 54 54 53 54 57 56 53 46 40 35 34 32 24 18 18 18 20 25 23 18 12 8 7 9 10 8 14 19 16 20 30
42 50 54 58 60 59 56 50 43 38 39 35 27 21 17 18 17 23 32 21 14 10 4 6 10 11 11 8 7 5 5 8
48 48 55 63 63 61 55 48 41 39 39 32 26 21 15 22 27 30 24 17 14 10 3 7 10 13 11 12 7 8 13 15
54 53 60 64 65 62 57 49 50 43 34 30 26 18 17 27 30 26 21 18 16 12 4 7 10 14 13 13 12 15 19 17
55 55 58 57 60 56 51 51 48 39 31 28 22 14 22 29 35 27 23 20 17 11 2 5 9 13 13 14 16 19 21 17
53 53 55 57 56 54 52 52 45 35 28 25 23 19 23 28 38 28 25 20 19 11 3 4 5 10 14 16 15 16 20 23
51 50 53 56 56 53 53 49 43 34 30 25 20 16 20 23 33 30 23 21 16 11 6 1 4 7 12 14 15 14 25 28
47 51 55 54 54 56 52 46 41 34 29 24 23 22 21 20 23 25 22 21 20 15 9 5 2 5 9 14 14 13 23 34
45 54 57 55 55 55 51 46 38 33 28 29 25 24 21 20 20 21 20 18 20 19 14 9 5 7 10 14 15 14 19 37
48 55 59 59 58 53 52 43 42 37 32 31 29 24 21 18 18 18 17 17 20 20 17 13 8 12 15 19 16 17 22 32
50 49 57 60 58 56 44 42 44 40 36 36 32 26 20 17 12 12 10 11 17 19 18 15 12 16 19 25 21 22 26 32
47 45 54 57 57 54 52 45 45 43 38 35 33 28 20 16 15 12 7 8 7 5 7 8 10 15 20 20 21 25 29 36
27 41 46 56 59 51 54 47 45 46 41 35 37 32 26 18 14 19 15 14 14 14 11 10 11 16 20 21 19 24 30 36
26 38 42 51 60 53 53 49 46 48 40 34 36 37 31 22 16 24 22 16 15 13 12 13 15 16 21 21 20 29 33 38
6 20 34 40 54 52 53 50 46 47 41 31 29 35 36 25 18 24 23 12 8 7 10 11 16 19 21 23 21 28 37 33
12 22 37 34 35 42 48 53 49 48 45 38 32 33 36 30 20 23 24 18 11 4 16 12 14 22 25 24 23 24 33 34
16 30 34 36 44 45 49 54 52 49 45 41 32 32 37 36 28 24 26 24 19 12 14 17 13 19 28 31 28 28 28 27
54 43 35 23 23 34 45 51 53 51 48 44 42 33 33 39 35 31 26 26 24 21 15 14 12 9 8 18 25 27 29 33
49 50 49 45 27 2 25 34 45 46 45 42 43 42 36 35 40 37 31 27 24 24 24 22 22 24 24 21 17 18 20 25
Wind_Direction_500mb
163 155 157 159 160 161 160 159 156 153 155 154 150 145 144 152 149 149 158 160 154 142 125 58 348 327 311 294 260 249 241 243
165 159 163 164 164 164 162 160 159 158 154 147 144 142 145 152 154 158 160 153 147 138 94 15 358 346 329 306 294 276 250 252
176 171 167 168 166 164 164 163 163 160 154 150 148 152 150 154 148 157 154 151 146 149 100 39 11 10 347 340 36 46 128 142
185 181 176 169 169 169 168 166 164 159 156 161 169 166 165 163 155 152 152 154 153 158 97 51 29 24 30 36 72 84 107 125
189 187 182 177 173 171 168 167 160 160 168 179 177 182 183 170 173 167 173 170 163 167 76 63 41 36 53 41 75 94 116 108
191 187 184 185 173 169 167 168 169 175 186 191 184 176 169 171 171 167 174 181 172 179 82 79 52 48 64 69 79 95 105 104
194 186 185 184 179 167 164 167 173 185 190 189 182 171 175 179 178 175 178 180 174 187 155 84 69 61 77 90 84 99 100 97
188 187 187 185 183 173 166 170 180 187 182 188 178 172 170 179 184 187 185 191 194 193 187 99 100 83 86 101 89 90 109 107
188 186 187 183 181 179 179 181 187 186 189 173 168 170 158 158 169 185 191 193 198 202 202 189 125 121 112 116 96 84 120 126
188 187 186 185 184 182 183 184 175 186 181 177 170 177 175 184 184 194 199 205 209 209 205 196 193 160 133 136 113 91 123 141
188 189 186 194 194 191 186 182 188 189 184 176 183 184 190 201 204 208 214 217 216 214 205 196 187 168 152 142 134 113 124 141
188 193 196 196 198 200 191 186 192 193 192 192 193 191 190 199 207 212 226 227 212 209 204 194 188 177 169 158 156 141 137 145
202 197 204 203 200 203 199 190 192 196 200 200 203 197 194 192 192 175 142 118 105 114 167 178 189 184 171 168 165 160 155 160
207 212 214 211 206 203 201 195 194 197 203 207 207 202 193 187 185 168 153 128 119 110 113 121 142 150 156 155 158 167 163 165
200 213 221 218 209 202 199 196 196 197 205 211 208 208 201 191 186 180 167 147 128 120 117 132 141 151 157 159 156 159 167 176
231 215 216 215 209 203 200 200 200 204 209 212 211 211 206 200 191 182 183 184 148 152 149 143 157 163 170 169 169 170 178 182
17 174 180 184 198 202 207 206 206 207 213 217 216 212 210 207 196 191 192 191 183 192 179 168 165 171 172 179 187 190 185 184
123 119 140 167 189 196 201 209 212 212 214 221 222 219 218 213 206 203 198 196 200 199 197 189 175 180 192 194 194 192 194 198
69 75 85 115 164 188 202 208 209 215 217 220 221 222 226 226 218 213 210 207 211 211 208 213 218 225 211 214 214 214 212 212
79 76 69 58 48 291 206 214 212 217 217 221 223 225 226 231 231 227 220 216 216 221 220 223 230 238 241 245 248 245 241 234
Wind_Speed_850mb
41 52 52 52 51 51 54 52 49 43 36 32 28 26 20 19 19 17 24 22 21 15 8 5 9 12 11 8 13 22 27 32
37 54 54 53 54 57 56 53 46 40 35 34 32 24 18 18 18 20 25 23 18 12 8 7 9 10 8 14 19 16 20 30
42 50 54 58 60 59 56 50 43 38 39 35 27 21 17 18 17 23 32 21 14 10 4 6 10 11 11 8 7 5 5 8
48 48 55 63 63 61 55 48 41 39 39 32 26 21 15 22 27 30 24 17 14 10 3 7 10 13 11 12 7 8 13 15
54 53 60 64 65 62 57 49 50 43 34 30 26 18 17 27 30 26 21 18 16 12 4 7 10 14 13 13 12 15 19 17
55 55 58 57 60 56 51 51 48 39 31 28 22 14 22 29 35 27 23 20 17 11 2 5 9 13 13 14 16 19 21 17
53 53 55 57 56 54 52 52 45 35 28 25 23 19 23 28 38 28 25 20 19 11 3 4 5 10 14 16 15 16 20 23
51 50 53 56 56 53 53 49 43 34 30 25 20 16 20 23 33 30 23 21 16 11 6 1 4 7 12 14 15 14 25 28
47 51 55 54 54 56 52 46 41 34 29 24 23 22 21 20 23 25 22 21 20 15 9 5 2 5 9 14 14 13 23 34
45 54 57 55 55 55 51 46 38 33 28 29 25 24 21 20 20 21 20 18 20 19 14 9 5 7 10 14 15 14 19 37
48 55 59 59 58 53 52 43 42 37 32 31 29 24 21 18 18 18 17 17 20 20 17 13 8 12 15 19 16 17 22 32
50 49 57 60 58 56 44 42 44 40 36 36 32 26 20 17 12 12 10 11 17 19 18 15 12 16 19 25 21 22 26 32
47 45 54 57 57 54 52 45 45 43 38 35 33 28 20 16 15 12 7 8 7 5 7 8 10 15 20 20 21 25 29 36
27 41 46 56 59 51 54 47 45 46 41 35 37 32 26 18 14 19 15 14 14 14 11 10 11 16 20 21 19 24 30 36
26 38 42 51 60 53 53 49 46 48 40 34 36 37 31 22 16 24 22 16 15 13 12 13 15 16 21 21 20 29 33 38
6 20 34 40 54 52 53 50 46 47 41 31 29 35 36 25 18 24 23 12 8 7 10 11 16 19 21 23 21 28 37 33
12 22 37 34 35 42 48 53 49 48 45 38 32 33 36 30 20 23 24 18 11 4 16 12 14 22 25 24 23 24 33 34
16 30 34 36 44 45 49 54 52 49 45 41 32 32 37 36 28 24 26 24 19 12 14 17 13 19 28 31 28 28 28 27
54 43 35 23 23 34 45 51 53 51 48 44 42 33 33 39 35 31 26 26 24 21 15 14 12 9 8 18 25 27 29 33
49 50 49 45 27 2 25 34 45 46 45 42 43 42 36 35 40 37 31 27 24 24 24 22 22 24 24 21 17 18 20 25
Wind_Direction_850mb
163 155 157 159 160 161 160 159 156 153 155 154 150 145 144 152 149 149 158 160 154 142 125 58 348 327 311 294 260 249 241 243
165 159 163 164 164 164 162 160 159 158 154 147 144 142 145 152 154 158 160 153 147 138 94 15 358 346 329 306 294 276 250 252
176 171 167 168 166 164 164 163 163 160 154 150 148 152 150 154 148 157 154 151 146 149 100 39 11 10 347 340 36 46 128 142
185 181 176 169 169 169 168 166 164 159 156 161 169 166 165 163 155 152 152 154 153 158 97 51 29 24 30 36 72 84 107 125
189 187 182 177 173 171 168 167 160 160 168 179 177 182 183 170 173 167 173 170 163 167 76 63 41 36 53 41 75 94 116 108
191 187 184 185 173 169 167 168 169 175 186 191 184 176 169 171 171 167 174 181 172 179 82 79 52 48 64 69 79 95 105 104
194 186 185 184 179 167 164 167 173 185 190 189 182 171 175 179 178 175 178 180 174 187 155 84 69 61 77 90 84 99 100 97
188 187 187 185 183 173 166 170 180 187 182 188 178 172 170 179 184 187 185 191 194 193 187 99 100 83 86 101 89 90 109 107
188 186 187 183 181 179 179 181 187 186 189 173 168 170 158 158 169 185 191 193 198 202 202 189 125 121 112 116 96 84 120 126
188 187 186 185 184 182 183 184 175 186 181 177 170 177 175 184 184 194 199 205 209 209 205 196 193 160 133 136 113 91 123 141
188 189 186 194 194 191 186 182 188 189 184 176 183 184 190 201 204 208 214 217 216 214 205 196 187 168 152 142 134 113 124 141
188 193 196 196 198 200 191 186 192 193 192 192 193 191 190 199 207 212 226 227 212 209 204 194 188 177 169 158 156 141 137 145
202 197 204 203 200 203 199 190 192 196 200 200 203 197 194 192 192 175 142 118 105 114 167 178 189 184 171 168 165 160 155 160
207 212 214 211 206 203 201 195 194 197 203 207 207 202 193 187 185 168 153 128 119 110 113 121 142 150 156 155 158 167 163 165
200 213 221 218 209 202 199 196 196 197 205 211 208 208 201 191 186 180 167 147 128 120 117 132 141 151 157 159 156 159 167 176
231 215 216 215 209 203 200 200 200 204 209 212 211 211 206 200 191 182 183 184 148 152 149 143 157 163 170 169 169 170 178 182
17 174 180 184 198 202 207 206 206 207 213 217 216 212 210 207 196 191 192 191 183 192 179 168 165 171 172 179 187 190 185 184
123 119 140 167 189 196 201 209 212 212 214 221 222 219 218 213 206 203 198 196 200 199 197 189 175 180 192 194 194 192 194 198
69 75 85 115 164 188 202 208 209 215 217 220 221 222 226 226 218 213 210 207 211 211 208 213 218 225 211 214 214 214 212 212
79 76 69 58 48 291 206 214 212 217 217 221 223 225 226 231 231 227 220 216 216 221 220 223 230 238 241 245 248 245 241 234